• In Austria
  • List of Countries
  • For 7 days
  • Water Temperature
  • Satellite Maps
  • Weather Map
  • News
  • Weather Widgets
  • user-avatar
    Login

    Hourly Weather Monterrey

    Today, 22 June, Friday

    Time Temperature Precipitation Wind Pressure Humidity
    00:00 +25°C° 0.4 mm 1 mps 711 mmHg 91%
    01:00 +25°C° 0.4 mm 1 mps 711 mmHg 91%
    02:00 +25°C° 0.4 mm 1 mps 711 mmHg 91%
    03:00 +25°C° 0.1 mm 1 mps 711 mmHg 91%
    04:00 +25°C° 0.1 mm 1 mps 711 mmHg 92%
    05:00 +25°C° 0.1 mm 1 mps 711 mmHg 92%
    06:00 +26°C° 0 mm 1 mps 712 mmHg 88%
    07:00 +27°C° 0 mm 1 mps 712 mmHg 84%
    08:00 +27°C° 0 mm 1 mps 713 mmHg 80%
    09:00 +29°C° 0.1 mm 1 mps 712 mmHg 75%
    10:00 +30°C° 0.1 mm 2 mps 712 mmHg 70%
    11:00 +31°C° 0.1 mm 2 mps 712 mmHg 64%
    12:00 +33°C° 0.4 mm 3 mps 712 mmHg 62%
    13:00 +33°C° 0.4 mm 3 mps 711 mmHg 60%
    14:00 +34°C° 0.4 mm 4 mps 711 mmHg 58%
    15:00 +34°C° 0.4 mm 4 mps 710 mmHg 60%
    16:00 +33°C° 0.4 mm 4 mps 710 mmHg 61%
    17:00 +33°C° 0.4 mm 4 mps 710 mmHg 63%
    18:00 +32°C° 0.3 mm 4 mps 710 mmHg 67%
    19:00 +30°C° 0.3 mm 3 mps 710 mmHg 71%
    20:00 +29°C° 0.3 mm 3 mps 710 mmHg 75%
    21:00 +28°C° 0.1 mm 3 mps 710 mmHg 77%
    22:00 +28°C° 0.1 mm 3 mps 711 mmHg 79%
    23:00 +27°C° 0.1 mm 2 mps 711 mmHg 80%

    Tomorrow, 23 June, Saturday

    Time Temperature Precipitation Wind Pressure Humidity
    00:00 +27°C° 0.1 mm 2 mps 710 mmHg 81%
    01:00 +27°C° 0.1 mm 2 mps 710 mmHg 83%
    02:00 +26°C° 0.1 mm 2 mps 710 mmHg 84%
    03:00 +26°C° 0.1 mm 2 mps 710 mmHg 84%
    04:00 +26°C° 0.1 mm 2 mps 710 mmHg 85%
    05:00 +26°C° 0.1 mm 1 mps 709 mmHg 85%
    06:00 +27°C° 0.1 mm 1 mps 710 mmHg 78%
    07:00 +29°C° 0.1 mm 1 mps 710 mmHg 71%
    08:00 +31°C° 0.1 mm 1 mps 711 mmHg 64%
    09:00 +32°C° 0.2 mm 2 mps 710 mmHg 58%
    10:00 +35°C° 0.2 mm 2 mps 710 mmHg 53%
    11:00 +36°C° 0.2 mm 3 mps 710 mmHg 48%
    12:00 +37°C° 0.5 mm 3 mps 710 mmHg 45%
    13:00 +37°C° 0.5 mm 3 mps 709 mmHg 42%
    14:00 +38°C° 0.5 mm 3 mps 708 mmHg 39%
    15:00 +37°C° 0.1 mm 4 mps 708 mmHg 41%
    16:00 +37°C° 0.1 mm 4 mps 708 mmHg 42%
    17:00 +36°C° 0.1 mm 4 mps 707 mmHg 43%
    18:00 +35°C° 0 mm 3 mps 708 mmHg 49%
    19:00 +33°C° 0 mm 3 mps 708 mmHg 54%
    20:00 +30°C° 0 mm 3 mps 708 mmHg 60%
    21:00 +30°C° 0 mm 2 mps 709 mmHg 63%
    22:00 +29°C° 0 mm 2 mps 709 mmHg 67%
    23:00 +28°C° 0 mm 2 mps 709 mmHg 70%

    Day after tomorrow, 24 June, Sunday

    Time Temperature Precipitation Wind Pressure Humidity
    00:00 +28°C° 0 mm 2 mps 709 mmHg 72%
    01:00 +27°C° 0 mm 2 mps 709 mmHg 75%
    02:00 +27°C° 0 mm 2 mps 708 mmHg 77%
    03:00 +26°C° 0.1 mm 2 mps 708 mmHg 79%
    04:00 +26°C° 0.1 mm 2 mps 709 mmHg 80%
    05:00 +26°C° 0.1 mm 2 mps 709 mmHg 82%
    06:00 +27°C° 0 mm 2 mps 709 mmHg 76%
    07:00 +29°C° 0 mm 2 mps 710 mmHg 71%
    08:00 +30°C° 0 mm 2 mps 710 mmHg 65%
    09:00 +33°C° 0.1 mm 3 mps 710 mmHg 60%
    10:00 +34°C° 0.1 mm 3 mps 710 mmHg 55%
    11:00 +36°C° 0.1 mm 4 mps 710 mmHg 50%
    12:00 +36°C° 0.7 mm 4 mps 710 mmHg 48%
    13:00 +37°C° 0.7 mm 5 mps 710 mmHg 46%
    14:00 +37°C° 0.7 mm 5 mps 709 mmHg 45%
    15:00 +37°C° 0.8 mm 5 mps 709 mmHg 47%
    16:00 +36°C° 0.8 mm 6 mps 709 mmHg 49%
    17:00 +36°C° 0.8 mm 6 mps 709 mmHg 52%
    18:00 +34°C° 0.5 mm 6 mps 709 mmHg 59%
    19:00 +32°C° 0.5 mm 6 mps 710 mmHg 66%
    20:00 +30°C° 0.5 mm 6 mps 710 mmHg 73%
    21:00 +29°C° 0.3 mm 5 mps 710 mmHg 76%
    22:00 +28°C° 0.3 mm 4 mps 711 mmHg 80%
    23:00 +27°C° 0.3 mm 4 mps 711 mmHg 83%

    25 June, Monday

    Time Temperature Precipitation Wind Pressure Humidity
    00:00 +27°C° 0 mm 3 mps 711 mmHg 83%
    01:00 +27°C° 0 mm 3 mps 711 mmHg 84%
    02:00 +26°C° 0 mm 2 mps 710 mmHg 84%
    03:00 +26°C° 0 mm 2 mps 711 mmHg 84%
    04:00 +26°C° 0 mm 2 mps 711 mmHg 85%
    05:00 +25°C° 0 mm 2 mps 711 mmHg 85%
    06:00 +27°C° 0.1 mm 3 mps 712 mmHg 80%
    07:00 +28°C° 0.1 mm 3 mps 712 mmHg 75%
    08:00 +29°C° 0.1 mm 3 mps 713 mmHg 70%
    09:00 +30°C° 0.7 mm 4 mps 713 mmHg 65%
    10:00 +32°C° 0.7 mm 4 mps 713 mmHg 60%
    11:00 +34°C° 0.7 mm 4 mps 712 mmHg 56%
    12:00 +34°C° 1.4 mm 5 mps 712 mmHg 55%
    13:00 +34°C° 1.4 mm 5 mps 711 mmHg 55%
    14:00 +34°C° 1.4 mm 5 mps 711 mmHg 55%
    15:00 +33°C° 1.3 mm 5 mps 711 mmHg 58%
    16:00 +32°C° 1.3 mm 5 mps 711 mmHg 61%
    17:00 +32°C° 1.3 mm 6 mps 711 mmHg 64%
    18:00 +30°C° 0.5 mm 5 mps 711 mmHg 64%
    19:00 +29°C° 0.5 mm 5 mps 712 mmHg 65%
    20:00 +28°C° 0.5 mm 4 mps 712 mmHg 66%
    21:00 +28°C° 0.7 mm 4 mps 712 mmHg 69%
    22:00 +28°C° 0.7 mm 4 mps 713 mmHg 73%
    23:00 +27°C° 0.7 mm 4 mps 713 mmHg 77%

    26 June, Tuesday

    Time Temperature Precipitation Wind Pressure Humidity
    00:00 +27°C° 0.3 mm 4 mps 713 mmHg 79%
    01:00 +27°C° 0.3 mm 4 mps 712 mmHg 81%
    02:00 +26°C° 0.3 mm 3 mps 712 mmHg 82%
    03:00 +26°C° 0.2 mm 3 mps 712 mmHg 84%
    04:00 +26°C° 0.2 mm 3 mps 713 mmHg 86%
    05:00 +25°C° 0.2 mm 2 mps 713 mmHg 88%
    06:00 +27°C° 0.1 mm 2 mps 713 mmHg 82%
    07:00 +28°C° 0.1 mm 3 mps 714 mmHg 77%
    08:00 +29°C° 0.1 mm 3 mps 714 mmHg 71%
    09:00 +30°C° 0.5 mm 3 mps 714 mmHg 65%
    10:00 +33°C° 0.5 mm 3 mps 714 mmHg 59%
    11:00 +34°C° 0.5 mm 4 mps 713 mmHg 52%
    12:00 +35°C° 1.1 mm 4 mps 713 mmHg 51%
    13:00 +35°C° 1.1 mm 5 mps 712 mmHg 50%
    14:00 +36°C° 1.1 mm 5 mps 712 mmHg 48%
    15:00 +35°C° 0.7 mm 6 mps 712 mmHg 50%
    16:00 +35°C° 0.7 mm 6 mps 712 mmHg 52%
    17:00 +34°C° 0.7 mm 6 mps 712 mmHg 53%
    18:00 +33°C° 0.3 mm 6 mps 712 mmHg 61%
    19:00 +30°C° 0.3 mm 6 mps 712 mmHg 68%
    20:00 +29°C° 0.3 mm 5 mps 713 mmHg 75%
    21:00 +28°C° 0.1 mm 5 mps 713 mmHg 77%
    22:00 +28°C° 0.1 mm 4 mps 713 mmHg 79%
    23:00 +27°C° 0.1 mm 4 mps 713 mmHg 81%

    27 June, Wednesday

    Time Temperature Precipitation Wind Pressure Humidity
    00:00 +27°C° 0 mm 3 mps 713 mmHg 83%
    01:00 +26°C° 0 mm 3 mps 712 mmHg 84%
    02:00 +26°C° 0 mm 3 mps 712 mmHg 86%
    03:00 +26°C° 0 mm 2 mps 712 mmHg 87%
    04:00 +25°C° 0 mm 2 mps 712 mmHg 88%
    05:00 +25°C° 0 mm 2 mps 712 mmHg 89%
    06:00 +26°C° 0 mm 2 mps 713 mmHg 83%
    07:00 +28°C° 0 mm 2 mps 713 mmHg 78%
    08:00 +29°C° 0 mm 2 mps 714 mmHg 73%
    09:00 +30°C° 0.1 mm 3 mps 713 mmHg 67%
    10:00 +31°C° 0.1 mm 3 mps 713 mmHg 61%
    11:00 +34°C° 0.1 mm 3 mps 713 mmHg 55%
    12:00 +35°C° 0.4 mm 4 mps 712 mmHg 51%
    13:00 +35°C° 0.4 mm 4 mps 712 mmHg 47%
    14:00 +36°C° 0.4 mm 5 mps 711 mmHg 44%
    15:00 +36°C° 0.2 mm 5 mps 711 mmHg 44%
    16:00 +35°C° 0.2 mm 5 mps 711 mmHg 45%
    17:00 +35°C° 0.2 mm 5 mps 711 mmHg 46%
    18:00 +33°C° 0.1 mm 5 mps 711 mmHg 53%
    19:00 +32°C° 0.1 mm 5 mps 712 mmHg 61%
    20:00 +29°C° 0.1 mm 5 mps 712 mmHg 68%
    21:00 +28°C° 0.1 mm 4 mps 712 mmHg 72%
    22:00 +28°C° 0.1 mm 4 mps 712 mmHg 76%
    23:00 +27°C° 0.1 mm 3 mps 713 mmHg 81%
    Show more